Simultaneous Nadir Overpasses (SNOs) Predictions

Prediction of SNOs between NOAA-15 and METOP-C Satellite Orbit:

Table of predicted SNOs for the next 14.0 days since TLE Epoch: 9/9/2021
Index Date (NOAA-15) Time (NOAA-15) Lat,Lon (NOAA-15) SZA (NOAA-15 ) Date (METOP-C) Time (METOP-C) Lat,Lon (METOP-C) SZA (METOP-C ) Distance(km) Time Diff (sec)
1 09/22/2021 05:01:18 81.03, 142.13 82.80 09/22/2021 05:00:07 81.04, 141.97 82.76 2.97 71
2 09/22/2021 05:51:53 -81.04, -50.83 97.21 09/22/2021 05:50:47 -81.04, -50.67 97.23 2.86 66
3 09/22/2021 06:42:20 81.04, 116.55 82.81 09/22/2021 06:41:28 81.03, 116.45 82.77 2.30 52
4 09/22/2021 07:32:55 -81.04, -76.04 97.18 09/22/2021 07:32:09 -81.03, -76.18 97.22 2.67 46
5 09/22/2021 08:23:22 81.04, 91.34 82.84 09/22/2021 08:22:49 81.04, 91.31 82.82 0.70 33
6 09/22/2021 09:13:57 -81.04,-101.26 97.15 09/22/2021 09:13:30 -81.04,-101.33 97.17 1.28 27
7 09/22/2021 10:04:24 81.04, 66.13 82.87 09/22/2021 10:04:10 81.05, 66.16 82.87 0.91 14
8 09/22/2021 10:54:59 -81.04,-126.47 97.12 09/22/2021 10:54:51 -81.05,-126.48 97.11 1.15 8
9 09/22/2021 11:45:27 81.05, 40.54 82.88 09/22/2021 11:45:32 81.04, 40.64 82.88 2.36 5
10 09/22/2021 12:36:02 -81.05,-152.05 97.11 09/22/2021 12:36:13 -81.04,-151.99 97.11 1.57 11
11 09/22/2021 13:26:29 81.05, 15.33 82.91 09/22/2021 13:26:53 81.05, 15.50 82.93 2.88 24
12 09/22/2021 14:17:04 -81.05,-177.26 97.08 09/22/2021 14:17:34 -81.05,-177.13 97.06 2.16 30
13 09/22/2021 15:07:31 81.05, -9.88 82.94 09/22/2021 15:08:15 81.04, -10.02 82.94 2.67 44
14 09/22/2021 15:58:06 -81.05, 157.53 97.05 09/22/2021 15:58:56 -81.04, 157.35 97.05 3.14 50
15 09/22/2021 16:48:33 81.05, -35.09 82.97 09/22/2021 16:49:36 81.05, -35.17 82.99 1.29 63



Historial Predications of SNOs between NOAA-15 and METOP-C
